Time,TemperatureF,DewpointF,PressureIn,WindDirection,WindDirectionDegrees,WindSpeedMPH,WindSpeedGustMPH,Humidity,HourlyPrecipIn,Conditions,Clouds,dailyrainin,SoftwareType,DateUTC
2013-04-14 00:00:00,62.4,47.0,29.77,NW,321,4.0,9.0,57,0.00,,,0.00,WUHU216DAVISVP2,2013-04-14 07:00:00,
2013-04-14 00:05:00,62.3,47.0,29.77,NW,324,7.0,9.0,57,0.00,,,0.00,WUHU216DAVISVP2,2013-04-14 07:05:00,
2013-04-14 00:10:00,62.1,46.8,29.78,NW,318,3.0,9.0,57,0.00,,,0.00,WUHU216DAVISVP2,2013-04-14 07:10:00,
2013-04-14 00:15:00,61.9,47.1,29.78,NW,312,7.0,9.0,58,0.00,,,0.00,WUHU216DAVISVP2,2013-04-14 07:15:00,
2013-04-14 00:20:00,61.7,46.9,29.78,NNW,331,3.0,9.0,58,0.00,,,0.00,WUHU216DAVISVP2,2013-04-14 07:20:00,
2013-04-14 00:25:00,61.6,46.8,29.78,NW,307,6.0,9.0,58,0.00,,,0.00,WUHU216DAVISVP2,2013-04-14 07:25:00,
2013-04-14 00:30:00,61.5,46.7,29.78,NW,317,5.0,10.0,58,0.00,,,0.00,WUHU216DAVISVP2,2013-04-14 07:30:00,
2013-04-14 00:35:00,61.4,46.6,29.78,NNW,336,7.0,11.0,58,0.00,,,0.00,WUHU216DAVISVP2,2013-04-14 07:35:00,
2013-04-14 00:40:00,61.3,46.0,29.78,NNW,334,3.0,11.0,57,0.00,,,0.00,WUHU216DAVISVP2,2013-04-14 07:40:00,
2013-04-14 00:45:00,61.2,46.4,29.78,NNW,330,6.0,11.0,58,0.00,,,0.00,WUHU216DAVISVP2,2013-04-14 07:45:00,
2013-04-14 00:50:00,61.1,46.3,29.78,WNW,302,7.0,11.0,58,0.00,,,0.00,WUHU216DAVISVP2,2013-04-14 07:50:00,
2013-04-14 00:55:00,60.9,46.1,29.78,NW,311,6.0,10.0,58,0.00,,,0.00,WUHU216DAVISVP2,2013-04-14 07:55:00,
2013-04-14 01:00:00,60.8,46.0,29.78,NNW,346,5.0,11.0,58,0.00,,,0.00,WUHU216DAVISVP2,2013-04-14 08:00:00,
2013-04-14 01:05:00,60.7,46.0,29.78,NNW,335,6.0,11.0,58,0.00,,,0.00,WUHU216DAVISVP2,2013-04-14 08:05:00,
2013-04-14 01:10:00,60.6,46.3,29.78,NW,325,5.0,10.0,59,0.00,,,0.00,WUHU216DAVISVP2,2013-04-14 08:10:00,
2013-04-14 01:15:00,60.5,45.8,29.78,NW,322,5.0,11.0,58,0.00,,,0.00,WUHU216DAVISVP2,2013-04-14 08:15:00,
2013-04-14 01:20:00,60.4,46.1,29.78,NW,319,5.0,11.0,59,0.00,,,0.00,WUHU216DAVISVP2,2013-04-14 08:20:00,
2013-04-14 01:25:00,60.4,46.1,29.78,NW,319,8.0,11.0,59,0.00,,,0.00,WUHU216DAVISVP2,2013-04-14 08:25:00,
2013-04-14 01:30:00,60.2,45.9,29.78,NW,316,5.0,11.0,59,0.00,,,0.00,WUHU216DAVISVP2,2013-04-14 08:30:00,
2013-04-14 01:35:00,60.1,45.8,29.78,NW,324,1.0,11.0,59,0.00,,,0.00,WUHU216DAVISVP2,2013-04-14 08:35:00,
2013-04-14 01:40:00,60.0,45.8,29.78,NW,323,7.0,11.0,59,0.00,,,0.00,WUHU216DAVISVP2,2013-04-14 08:40:00,
2013-04-14 01:45:00,60.1,45.8,29.78,NNW,338,2.0,9.0,59,0.00,,,0.00,WUHU216DAVISVP2,2013-04-14 08:45:00,
2013-04-14 01:50:00,60.0,45.8,29.78,WNW,296,6.0,10.0,59,0.00,,,0.00,WUHU216DAVISVP2,2013-04-14 08:50:00,
2013-04-14 01:55:00,60.0,45.8,29.78,NNW,345,6.0,12.0,59,0.00,,,0.00,WUHU216DAVISVP2,2013-04-14 08:55:00,
2013-04-14 02:00:00,59.8,45.6,29.79,NW,325,1.0,12.0,59,0.00,,,0.00,WUHU216DAVISVP2,2013-04-14 09:00:00,
2013-04-14 02:05:00,59.6,45.8,29.79,NW,317,7.0,8.0,60,0.00,,,0.00,WUHU216DAVISVP2,2013-04-14 09:05:00,
2013-04-14 02:10:00,59.4,46.1,29.79,NW,323,4.0,9.0,61,0.00,,,0.00,WUHU216DAVISVP2,2013-04-14 09:10:00,
2013-04-14 02:15:00,59.2,45.9,29.78,NNW,327,5.0,11.0,61,0.00,,,0.00,WUHU216DAVISVP2,2013-04-14 09:15:00,
2013-04-14 02:20:00,59.1,45.8,29.78,WNW,292,5.0,11.0,61,0.00,,,0.00,WUHU216DAVISVP2,2013-04-14 09:20:00,
2013-04-14 02:25:00,58.9,45.6,29.78,NNW,343,5.0,9.0,61,0.00,,,0.00,WUHU216DAVISVP2,2013-04-14 09:25:00,
2013-04-14 02:30:00,58.8,45.5,29.78,NNW,342,4.0,10.0,61,0.00,,,0.00,WUHU216DAVISVP2,2013-04-14 09:30:00,
2013-04-14 02:35:00,58.7,45.8,29.78,NW,323,4.0,10.0,62,0.00,,,0.00,WUHU216DAVISVP2,2013-04-14 09:35:00,
2013-04-14 02:41:00,58.5,45.7,29.78,North,355,5.0,9.0,62,0.00,,,0.00,WUHU216DAVISVP2,2013-04-14 09:41:00,
2013-04-14 02:46:00,58.3,45.5,29.78,NW,322,2.0,7.0,62,0.00,,,0.00,WUHU216DAVISVP2,2013-04-14 09:46:00,
2013-04-14 02:51:00,58.1,45.7,29.78,NW,325,3.0,7.0,63,0.00,,,0.00,WUHU216DAVISVP2,2013-04-14 09:51:00,
2013-04-14 02:56:00,57.8,45.4,29.78,NNW,340,0.0,7.0,63,0.00,,,0.00,WUHU216DAVISVP2,2013-04-14 09:56:00,
2013-04-14 03:01:00,57.5,45.6,29.79,NNW,348,4.0,6.0,64,0.00,,,0.00,WUHU216DAVISVP2,2013-04-14 10:01:00,
2013-04-14 03:06:00,57.2,45.7,29.79,NNW,339,1.0,6.0,65,0.00,,,0.00,WUHU216DAVISVP2,2013-04-14 10:06:00,
2013-04-14 03:11:00,56.9,45.8,29.78,NNW,338,0.0,5.0,66,0.00,,,0.00,WUHU216DAVISVP2,2013-04-14 10:11:00,
2013-04-14 03:16:00,56.6,45.5,29.78,NNW,331,2.0,6.0,66,0.00,,,0.00,WUHU216DAVISVP2,2013-04-14 10:16:00,
2013-04-14 03:21:00,56.5,45.4,29.78,NW,323,5.0,6.0,66,0.00,,,0.00,WUHU216DAVISVP2,2013-04-14 10:21:00,
2013-04-14 03:26:00,56.5,45.4,29.78,NNW,336,4.0,8.0,66,0.00,,,0.00,WUHU216DAVISVP2,2013-04-14 10:26:00,
2013-04-14 03:31:00,56.6,45.5,29.78,NNW,337,4.0,8.0,66,0.00,,,0.00,WUHU216DAVISVP2,2013-04-14 10:31:00,
2013-04-14 03:37:00,56.5,45.4,29.78,NNW,333,2.0,9.0,66,0.00,,,0.00,WUHU216DAVISVP2,2013-04-14 10:37:00,
2013-04-14 03:42:00,56.5,45.7,29.78,NNW,330,3.0,9.0,67,0.00,,,0.00,WUHU216DAVISVP2,2013-04-14 10:42:00,
2013-04-14 03:47:00,56.4,45.6,29.78,NNW,340,7.0,10.0,67,0.00,,,0.00,WUHU216DAVISVP2,2013-04-14 10:47:00,
2013-04-14 03:51:00,56.2,45.4,29.78,NNW,339,5.0,10.0,67,0.00,,,0.00,WUHU216DAVISVP2,2013-04-14 10:51:00,
2013-04-14 03:57:00,56.1,45.8,29.78,NW,317,2.0,7.0,68,0.00,,,0.00,WUHU216DAVISVP2,2013-04-14 10:57:00,
2013-04-14 04:02:00,55.9,46.0,29.78,NW,312,3.0,7.0,69,0.00,,,0.00,WUHU216DAVISVP2,2013-04-14 11:02:00,
2013-04-14 04:07:00,55.6,45.7,29.78,NW,319,1.0,7.0,69,0.00,,,0.00,WUHU216DAVISVP2,2013-04-14 11:07:00,
2013-04-14 04:12:00,55.3,45.4,29.78,NNW,338,0.0,5.0,69,0.00,,,0.00,WUHU216DAVISVP2,2013-04-14 11:12:00,
2013-04-14 04:17:00,55.2,45.7,29.79,NW,325,0.0,6.0,70,0.00,,,0.00,WUHU216DAVISVP2,2013-04-14 11:17:00,
2013-04-14 04:22:00,55.0,45.5,29.78,NW,320,3.0,6.0,70,0.00,,,0.00,WUHU216DAVISVP2,2013-04-14 11:22:00,
2013-04-14 04:27:00,54.8,45.6,29.79,NW,313,3.0,6.0,71,0.00,,,0.00,WUHU216DAVISVP2,2013-04-14 11:27:00,
2013-04-14 04:32:00,54.6,45.4,29.79,NW,317,0.0,6.0,71,0.00,,,0.00,WUHU216DAVISVP2,2013-04-14 11:32:00,
2013-04-14 04:37:00,54.4,45.6,29.79,NW,314,5.0,6.0,72,0.00,,,0.00,WUHU216DAVISVP2,2013-04-14 11:37:00,
2013-04-14 04:42:00,54.2,45.5,29.79,NNW,331,5.0,6.0,72,0.00,,,0.00,WUHU216DAVISVP2,2013-04-14 11:42:00,
2013-04-14 04:47:00,54.1,45.4,29.79,NW,326,1.0,7.0,72,0.00,,,0.00,WUHU216DAVISVP2,2013-04-14 11:47:00,
2013-04-14 04:52:00,54.0,45.3,29.79,NW,325,1.0,7.0,72,0.00,,,0.00,WUHU216DAVISVP2,2013-04-14 11:52:00,
2013-04-14 04:57:00,53.9,45.2,29.79,NNW,337,4.0,6.0,72,0.00,,,0.00,WUHU216DAVISVP2,2013-04-14 11:57:00,
2013-04-14 05:02:00,53.8,45.4,29.79,NW,316,0.0,6.0,73,0.00,,,0.00,WUHU216DAVISVP2,2013-04-14 12:02:00,
2013-04-14 05:07:00,53.6,45.2,29.79,NW,322,0.0,5.0,73,0.00,,,0.00,WUHU216DAVISVP2,2013-04-14 12:07:00,
2013-04-14 05:12:00,53.4,45.3,29.79,NW,322,0.0,5.0,74,0.00,,,0.00,WUHU216DAVISVP2,2013-04-14 12:12:00,
2013-04-14 05:17:00,53.2,45.2,29.79,NW,322,3.0,5.0,74,0.00,,,0.00,WUHU216DAVISVP2,2013-04-14 12:17:00,
2013-04-14 05:22:00,53.0,45.4,29.79,NW,322,5.0,5.0,75,0.00,,,0.00,WUHU216DAVISVP2,2013-04-14 12:22:00,
2013-04-14 05:27:00,52.8,45.2,29.79,NW,322,3.0,5.0,75,0.00,,,0.00,WUHU216DAVISVP2,2013-04-14 12:27:00,
2013-04-14 05:32:00,52.5,45.2,29.79,NW,318,3.0,5.0,76,0.00,,,0.00,WUHU216DAVISVP2,2013-04-14 12:32:00,
2013-04-14 05:37:00,52.4,45.1,29.80,NW,316,1.0,5.0,76,0.00,,,0.00,WUHU216DAVISVP2,2013-04-14 12:37:00,
2013-04-14 05:42:00,52.3,45.0,29.80,WNW,298,4.0,6.0,76,0.00,,,0.00,WUHU216DAVISVP2,2013-04-14 12:42:00,
2013-04-14 05:47:00,52.3,45.0,29.79,NW,304,1.0,6.0,76,0.00,,,0.00,WUHU216DAVISVP2,2013-04-14 12:47:00,
2013-04-14 05:52:00,52.2,44.9,29.79,NW,317,2.0,5.0,76,0.00,,,0.00,WUHU216DAVISVP2,2013-04-14 12:52:00,
2013-04-14 05:57:00,52.1,45.1,29.80,NW,317,1.0,5.0,77,0.00,,,0.00,WUHU216DAVISVP2,2013-04-14 12:57:00,
2013-04-14 06:02:00,52.0,45.0,29.80,NW,317,0.0,4.0,77,0.00,,,0.00,WUHU216DAVISVP2,2013-04-14 13:02:00,
2013-04-14 06:07:00,51.9,45.3,29.80,NW,317,0.0,5.0,78,0.00,,,0.00,WUHU216DAVISVP2,2013-04-14 13:07:00,
2013-04-14 06:12:00,51.8,45.2,29.81,NW,317,3.0,5.0,78,0.00,,,0.00,WUHU216DAVISVP2,2013-04-14 13:12:00,
2013-04-14 06:17:00,51.7,45.1,29.81,NW,317,1.0,5.0,78,0.00,,,0.00,WUHU216DAVISVP2,2013-04-14 13:17:00,
2013-04-14 06:22:00,51.7,45.1,29.81,NW,325,0.0,5.0,78,0.00,,,0.00,WUHU216DAVISVP2,2013-04-14 13:22:00,
2013-04-14 06:27:00,51.7,45.1,29.81,NNW,333,4.0,6.0,78,0.00,,,0.00,WUHU216DAVISVP2,2013-04-14 13:27:00,
2013-04-14 06:32:00,51.7,45.1,29.81,NW,323,4.0,6.0,78,0.00,,,0.00,WUHU216DAVISVP2,2013-04-14 13:32:00,
2013-04-14 06:37:00,51.8,44.8,29.81,NW,320,3.0,7.0,77,0.00,,,0.00,WUHU216DAVISVP2,2013-04-14 13:37:00,
2013-04-14 06:42:00,51.8,44.8,29.81,NNW,329,0.0,7.0,77,0.00,,,0.00,WUHU216DAVISVP2,2013-04-14 13:42:00,
2013-04-14 06:47:00,51.9,45.0,29.81,NW,304,1.0,7.0,77,0.00,,,0.00,WUHU216DAVISVP2,2013-04-14 13:47:00,
2013-04-14 06:52:00,51.9,45.0,29.82,NW,318,0.0,5.0,77,0.00,,,0.00,WUHU216DAVISVP2,2013-04-14 13:52:00,
2013-04-14 06:57:00,51.9,45.0,29.82,NW,318,0.0,5.0,77,0.00,,,0.00,WUHU216DAVISVP2,2013-04-14 13:57:00,
2013-04-14 07:02:00,52.0,45.1,29.82,NNW,333,2.0,5.0,77,0.00,,,0.00,WUHU216DAVISVP2,2013-04-14 14:02:00,
2013-04-14 07:07:00,52.2,45.3,29.82,NW,325,3.0,6.0,77,0.00,,,0.00,WUHU216DAVISVP2,2013-04-14 14:07:00,
2013-04-14 07:12:00,52.3,45.0,29.82,NW,318,6.0,6.0,76,0.00,,,0.00,WUHU216DAVISVP2,2013-04-14 14:12:00,
2013-04-14 07:17:00,52.5,45.2,29.83,NW,321,6.0,6.0,76,0.00,,,0.00,WUHU216DAVISVP2,2013-04-14 14:17:00,
2013-04-14 07:22:00,52.7,45.1,29.83,North,5,4.0,9.0,75,0.00,,,0.00,WUHU216DAVISVP2,2013-04-14 14:22:00,
2013-04-14 07:27:00,52.8,45.2,29.83,North,5,5.0,10.0,75,0.00,,,0.00,WUHU216DAVISVP2,2013-04-14 14:27:00,
2013-04-14 07:32:00,53.0,45.0,29.83,NNW,344,3.0,11.0,74,0.00,,,0.00,WUHU216DAVISVP2,2013-04-14 14:32:00,
2013-04-14 07:38:00,53.2,45.2,29.83,NW,320,7.0,11.0,74,0.00,,,0.00,WUHU216DAVISVP2,2013-04-14 14:38:00,
2013-04-14 07:43:00,53.4,45.4,29.83,NNW,344,4.0,12.0,74,0.00,,,0.00,WUHU216DAVISVP2,2013-04-14 14:43:00,
2013-04-14 07:48:00,53.5,45.2,29.83,NW,312,5.0,12.0,73,0.00,,,0.00,WUHU216DAVISVP2,2013-04-14 14:48:00,
2013-04-14 07:53:00,53.8,45.4,29.83,NNW,338,3.0,10.0,73,0.00,,,0.00,WUHU216DAVISVP2,2013-04-14 14:53:00,
2013-04-14 07:58:00,54.0,45.3,29.84,NW,326,3.0,11.0,72,0.00,,,0.00,WUHU216DAVISVP2,2013-04-14 14:58:00,
2013-04-14 08:03:00,54.3,45.2,29.84,NW,305,7.0,11.0,71,0.00,,,0.00,WUHU216DAVISVP2,2013-04-14 15:03:00,
2013-04-14 08:08:00,54.6,45.1,29.84,North,355,3.0,13.0,70,0.00,,,0.00,WUHU216DAVISVP2,2013-04-14 15:08:00,
2013-04-14 08:13:00,54.9,45.4,29.84,NNW,344,7.0,13.0,70,0.00,,,0.00,WUHU216DAVISVP2,2013-04-14 15:13:00,
2013-04-14 08:18:00,55.1,45.2,29.84,NNW,348,3.0,12.0,69,0.00,,,0.00,WUHU216DAVISVP2,2013-04-14 15:18:00,
2013-04-14 08:23:00,55.7,45.4,29.84,North,5,11.0,12.0,68,0.00,,,0.00,WUHU216DAVISVP2,2013-04-14 15:23:00,
2013-04-14 08:28:00,56.2,45.1,29.84,North,355,6.0,15.0,66,0.00,,,0.00,WUHU216DAVISVP2,2013-04-14 15:28:00,
2013-04-14 08:33:00,56.7,45.2,29.84,NNW,342,3.0,15.0,65,0.00,,,0.00,WUHU216DAVISVP2,2013-04-14 15:33:00,
2013-04-14 08:38:00,57.2,45.3,29.84,NW,326,7.0,12.0,64,0.00,,,0.00,WUHU216DAVISVP2,2013-04-14 15:38:00,
2013-04-14 08:43:00,57.8,45.0,29.84,NW,313,13.0,13.0,62,0.00,,,0.00,WUHU216DAVISVP2,2013-04-14 15:43:00,
2013-04-14 08:48:00,58.0,44.3,29.85,North,350,4.0,14.0,60,0.00,,,0.00,WUHU216DAVISVP2,2013-04-14 15:48:00,
2013-04-14 08:53:00,58.4,44.2,29.85,NNW,331,4.0,16.0,59,0.00,,,0.00,WUHU216DAVISVP2,2013-04-14 15:53:00,
2013-04-14 08:58:00,58.6,43.5,29.85,NW,309,3.0,16.0,57,0.00,,,0.00,WUHU216DAVISVP2,2013-04-14 15:58:00,
2013-04-14 09:03:00,59.2,44.5,29.85,West,279,9.0,16.0,58,0.00,,,0.00,WUHU216DAVISVP2,2013-04-14 16:03:00,
2013-04-14 09:08:00,59.5,44.2,29.85,NNW,331,6.0,12.0,57,0.00,,,0.00,WUHU216DAVISVP2,2013-04-14 16:08:00,
2013-04-14 09:13:00,59.6,43.9,29.85,NNW,332,9.0,14.0,56,0.00,,,0.00,WUHU216DAVISVP2,2013-04-14 16:13:00,
2013-04-14 09:18:00,59.6,44.3,29.85,NNW,340,6.0,14.0,57,0.00,,,0.00,WUHU216DAVISVP2,2013-04-14 16:18:00,
2013-04-14 09:23:00,59.8,45.0,29.85,North,11,3.0,13.0,58,0.00,,,0.00,WUHU216DAVISVP2,2013-04-14 16:23:00,
2013-04-14 09:28:00,60.3,45.1,29.85,North,355,12.0,13.0,57,0.00,,,0.00,WUHU216DAVISVP2,2013-04-14 16:28:00,
2013-04-14 09:33:00,60.4,45.2,29.85,NNW,334,11.0,14.0,57,0.00,,,0.00,WUHU216DAVISVP2,2013-04-14 16:33:00,
2013-04-14 09:38:00,60.5,45.3,29.85,NW,304,12.0,14.0,57,0.00,,,0.00,WUHU216DAVISVP2,2013-04-14 16:38:00,
2013-04-14 09:43:00,61.3,45.1,29.85,NW,320,6.0,13.0,55,0.00,,,0.00,WUHU216DAVISVP2,2013-04-14 16:43:00,
2013-04-14 09:48:00,61.3,45.1,29.85,NNE,13,11.0,13.0,55,0.00,,,0.00,WUHU216DAVISVP2,2013-04-14 16:48:00,
2013-04-14 09:53:00,61.7,45.5,29.85,NNW,348,8.0,13.0,55,0.00,,,0.00,WUHU216DAVISVP2,2013-04-14 16:53:00,
2013-04-14 09:58:00,61.8,45.1,29.85,NNW,331,5.0,15.0,54,0.00,,,0.00,WUHU216DAVISVP2,2013-04-14 16:58:00,
2013-04-14 10:03:00,62.0,45.7,29.85,NNW,340,8.0,15.0,55,0.00,,,0.00,WUHU216DAVISVP2,2013-04-14 17:03:00,
2013-04-14 10:08:00,62.3,45.9,29.85,NNW,339,10.0,13.0,55,0.00,,,0.00,WUHU216DAVISVP2,2013-04-14 17:08:00,
2013-04-14 10:13:00,62.1,44.8,29.85,NW,321,7.0,14.0,53,0.00,,,0.00,WUHU216DAVISVP2,2013-04-14 17:13:00,
2013-04-14 10:18:00,62.4,46.0,29.85,NNW,342,9.0,14.0,55,0.00,,,0.00,WUHU216DAVISVP2,2013-04-14 17:18:00,
2013-04-14 10:23:00,63.0,46.2,29.86,NW,326,5.0,14.0,54,0.00,,,0.00,WUHU216DAVISVP2,2013-04-14 17:23:00,
2013-04-14 10:28:00,63.1,46.3,29.86,NNW,334,6.0,14.0,54,0.00,,,0.00,WUHU216DAVISVP2,2013-04-14 17:28:00,
2013-04-14 10:33:00,63.3,47.0,29.86,NW,325,6.0,19.0,55,0.00,,,0.00,WUHU216DAVISVP2,2013-04-14 17:33:00,
2013-04-14 10:38:00,64.2,45.7,29.86,NW,314,7.0,19.0,51,0.00,,,0.00,WUHU216DAVISVP2,2013-04-14 17:38:00,
2013-04-14 10:43:00,64.2,44.6,29.86,NW,324,7.0,16.0,49,0.00,,,0.00,WUHU216DAVISVP2,2013-04-14 17:43:00,
2013-04-14 10:48:00,64.1,45.1,29.86,NNW,332,2.0,16.0,50,0.00,,,0.00,WUHU216DAVISVP2,2013-04-14 17:48:00,
2013-04-14 10:53:00,64.4,45.3,29.86,North,355,6.0,16.0,50,0.00,,,0.00,WUHU216DAVISVP2,2013-04-14 17:53:00,
2013-04-14 10:58:00,64.6,45.0,29.86,NW,309,1.0,16.0,49,0.00,,,0.00,WUHU216DAVISVP2,2013-04-14 17:58:00,
2013-04-14 11:03:00,65.8,46.1,29.86,North,350,7.0,16.0,49,0.00,,,0.00,WUHU216DAVISVP2,2013-04-14 18:03:00,
2013-04-14 11:08:00,65.5,45.8,29.86,WNW,298,5.0,16.0,49,0.00,,,0.00,WUHU216DAVISVP2,2013-04-14 18:08:00,
2013-04-14 11:13:00,65.7,44.9,29.86,NW,323,4.0,15.0,47,0.00,,,0.00,WUHU216DAVISVP2,2013-04-14 18:13:00,
2013-04-14 11:18:00,66.0,45.2,29.86,NW,312,3.0,15.0,47,0.00,,,0.00,WUHU216DAVISVP2,2013-04-14 18:18:00,
2013-04-14 11:23:00,66.5,45.6,29.86,North,355,8.0,15.0,47,0.00,,,0.00,WUHU216DAVISVP2,2013-04-14 18:23:00,
2013-04-14 11:28:00,66.7,46.4,29.86,NW,323,11.0,14.0,48,0.00,,,0.00,WUHU216DAVISVP2,2013-04-14 18:28:00,
2013-04-14 11:33:00,67.1,45.6,29.86,NW,311,12.0,14.0,46,0.00,,,0.00,WUHU216DAVISVP2,2013-04-14 18:33:00,
2013-04-14 11:38:00,67.2,46.3,29.86,NNW,331,2.0,14.0,47,0.00,,,0.00,WUHU216DAVISVP2,2013-04-14 18:38:00,
2013-04-14 11:43:00,67.2,46.9,29.85,NNW,339,10.0,13.0,48,0.00,,,0.00,WUHU216DAVISVP2,2013-04-14 18:43:00,
2013-04-14 11:48:00,67.7,47.3,29.85,NNW,336,4.0,14.0,48,0.00,,,0.00,WUHU216DAVISVP2,2013-04-14 18:48:00,
2013-04-14 11:53:00,67.9,46.9,29.85,NNW,335,9.0,14.0,47,0.00,,,0.00,WUHU216DAVISVP2,2013-04-14 18:53:00,
2013-04-14 11:58:00,68.2,47.8,29.85,NNW,329,4.0,13.0,48,0.00,,,0.00,WUHU216DAVISVP2,2013-04-14 18:58:00,
2013-04-14 12:03:00,68.5,48.6,29.85,NNW,340,7.0,13.0,49,0.00,,,0.00,WUHU216DAVISVP2,2013-04-14 19:03:00,
2013-04-14 12:08:00,69.2,47.5,29.85,NW,323,8.0,14.0,46,0.00,,,0.00,WUHU216DAVISVP2,2013-04-14 19:08:00,
2013-04-14 12:13:00,68.8,48.3,29.84,WNW,297,5.0,14.0,48,0.00,,,0.00,WUHU216DAVISVP2,2013-04-14 19:13:00,
2013-04-14 12:18:00,69.4,48.9,29.84,NNE,12,0.0,9.0,48,0.00,,,0.00,WUHU216DAVISVP2,2013-04-14 19:18:00,
2013-04-14 12:23:00,70.6,49.4,29.84,NNW,346,3.0,9.0,47,0.00,,,0.00,WUHU216DAVISVP2,2013-04-14 19:23:00,
2013-04-14 12:28:00,70.6,50.0,29.84,NNE,20,4.0,11.0,48,0.00,,,0.00,WUHU216DAVISVP2,2013-04-14 19:28:00,
2013-04-14 12:33:00,69.8,48.7,29.83,North,355,6.0,12.0,47,0.00,,,0.00,WUHU216DAVISVP2,2013-04-14 19:33:00,
2013-04-14 12:38:00,69.7,48.0,29.83,North,351,7.0,12.0,46,0.00,,,0.00,WUHU216DAVISVP2,2013-04-14 19:38:00,
2013-04-14 12:43:00,70.6,48.8,29.83,North,5,3.0,10.0,46,0.00,,,0.00,WUHU216DAVISVP2,2013-04-14 19:43:00,
2013-04-14 12:48:00,70.7,48.9,29.83,North,5,7.0,10.0,46,0.00,,,0.00,WUHU216DAVISVP2,2013-04-14 19:48:00,
2013-04-14 12:53:00,70.6,48.2,29.83,NW,325,12.0,12.0,45,0.00,,,0.00,WUHU216DAVISVP2,2013-04-14 19:53:00,
2013-04-14 12:58:00,70.6,48.2,29.83,NNW,331,0.0,13.0,45,0.00,,,0.00,WUHU216DAVISVP2,2013-04-14 19:58:00,
2013-04-14 13:03:00,70.9,47.8,29.83,North,355,8.0,13.0,44,0.00,,,0.00,WUHU216DAVISVP2,2013-04-14 20:03:00,
2013-04-14 13:08:00,71.5,48.4,29.83,North,360,4.0,14.0,44,0.00,,,0.00,WUHU216DAVISVP2,2013-04-14 20:08:00,
2013-04-14 13:13:00,72.0,49.5,29.83,NNW,332,6.0,15.0,45,0.00,,,0.00,WUHU216DAVISVP2,2013-04-14 20:13:00,
2013-04-14 13:18:00,72.5,48.7,29.82,NNE,22,7.0,15.0,43,0.00,,,0.00,WUHU216DAVISVP2,2013-04-14 20:18:00,
2013-04-14 13:23:00,72.5,47.4,29.82,NNW,330,2.0,14.0,41,0.00,,,0.00,WUHU216DAVISVP2,2013-04-14 20:23:00,
2013-04-14 13:28:00,72.7,47.5,29.82,North,350,9.0,14.0,41,0.00,,,0.00,WUHU216DAVISVP2,2013-04-14 20:28:00,
2013-04-14 13:33:00,72.9,47.8,29.81,NW,321,5.0,13.0,41,0.00,,,0.00,WUHU216DAVISVP2,2013-04-14 20:33:00,
2013-04-14 13:38:00,73.7,47.9,29.81,NW,325,8.0,13.0,40,0.00,,,0.00,WUHU216DAVISVP2,2013-04-14 20:38:00,
2013-04-14 13:43:00,73.6,45.6,29.81,NW,315,5.0,13.0,37,0.00,,,0.00,WUHU216DAVISVP2,2013-04-14 20:43:00,
2013-04-14 13:48:00,73.4,46.1,29.81,NNW,336,8.0,13.0,38,0.00,,,0.00,WUHU216DAVISVP2,2013-04-14 20:48:00,
2013-04-14 13:53:00,73.9,47.3,29.81,NW,311,7.0,13.0,39,0.00,,,0.00,WUHU216DAVISVP2,2013-04-14 20:53:00,
2013-04-14 13:58:00,74.5,44.1,29.81,NW,311,9.0,15.0,34,0.00,,,0.00,WUHU216DAVISVP2,2013-04-14 20:58:00,
2013-04-14 14:03:00,74.3,44.7,29.81,North,355,3.0,15.0,35,0.00,,,0.00,WUHU216DAVISVP2,2013-04-14 21:03:00,
2013-04-14 14:08:00,74.4,43.2,29.80,West,279,14.0,19.0,33,0.00,,,0.00,WUHU216DAVISVP2,2013-04-14 21:08:00,
2013-04-14 14:13:00,74.2,44.6,29.80,NW,304,10.0,19.0,35,0.00,,,0.00,WUHU216DAVISVP2,2013-04-14 21:13:00,
2013-04-14 14:18:00,74.4,42.4,29.80,WSW,246,8.0,16.0,32,0.00,,,0.00,WUHU216DAVISVP2,2013-04-14 21:18:00,
2013-04-14 14:23:00,74.8,43.6,29.80,NW,318,12.0,16.0,33,0.00,,,0.00,WUHU216DAVISVP2,2013-04-14 21:23:00,
2013-04-14 14:28:00,74.7,41.2,29.79,NNW,328,1.0,17.0,30,0.00,,,0.00,WUHU216DAVISVP2,2013-04-14 21:28:00,
2013-04-14 14:33:00,75.3,42.6,29.79,NW,313,4.0,17.0,31,0.00,,,0.00,WUHU216DAVISVP2,2013-04-14 21:33:00,
2013-04-14 14:38:00,75.7,41.9,29.79,North,360,5.0,15.0,30,0.00,,,0.00,WUHU216DAVISVP2,2013-04-14 21:38:00,
2013-04-14 14:43:00,76.0,42.2,29.79,NNW,346,7.0,15.0,30,0.00,,,0.00,WUHU216DAVISVP2,2013-04-14 21:43:00,
2013-04-14 14:48:00,76.6,40.1,29.79,NNW,329,6.0,14.0,27,0.00,,,0.00,WUHU216DAVISVP2,2013-04-14 21:48:00,
2013-04-14 14:53:00,76.0,39.5,29.78,NW,318,7.0,17.0,27,0.00,,,0.00,WUHU216DAVISVP2,2013-04-14 21:53:00,
2013-04-14 14:58:00,76.3,40.6,29.78,NNW,338,11.0,17.0,28,0.00,,,0.00,WUHU216DAVISVP2,2013-04-14 21:58:00,
2013-04-14 15:03:00,76.3,39.7,29.78,NNW,328,10.0,14.0,27,0.00,,,0.00,WUHU216DAVISVP2,2013-04-14 22:03:00,
2013-04-14 15:08:00,76.5,39.9,29.77,NW,326,8.0,14.0,27,0.00,,,0.00,WUHU216DAVISVP2,2013-04-14 22:08:00,
2013-04-14 15:14:00,76.9,40.2,29.77,WNW,292,9.0,15.0,27,0.00,,,0.00,WUHU216DAVISVP2,2013-04-14 22:14:00,
2013-04-14 15:19:00,76.5,39.9,29.77,WNW,300,12.0,16.0,27,0.00,,,0.00,WUHU216DAVISVP2,2013-04-14 22:19:00,
2013-04-14 15:24:00,76.3,40.6,29.76,WNW,294,9.0,16.0,28,0.00,,,0.00,WUHU216DAVISVP2,2013-04-14 22:24:00,
2013-04-14 15:29:00,76.6,40.0,29.76,WNW,298,6.0,13.0,27,0.00,,,0.00,WUHU216DAVISVP2,2013-04-14 22:29:00,
2013-04-14 15:34:00,76.6,40.0,29.76,NNW,333,6.0,14.0,27,0.00,,,0.00,WUHU216DAVISVP2,2013-04-14 22:34:00,
2013-04-14 15:39:00,77.3,39.6,29.76,West,260,3.0,14.0,26,0.00,,,0.00,WUHU216DAVISVP2,2013-04-14 22:39:00,
2013-04-14 15:44:00,77.1,39.4,29.76,NW,317,4.0,15.0,26,0.00,,,0.00,WUHU216DAVISVP2,2013-04-14 22:44:00,
2013-04-14 15:49:00,77.0,39.4,29.75,NNW,327,8.0,15.0,26,0.00,,,0.00,WUHU216DAVISVP2,2013-04-14 22:49:00,
2013-04-14 15:54:00,77.0,39.5,29.75,NW,320,13.0,13.0,26,0.00,,,0.00,WUHU216DAVISVP2,2013-04-14 22:54:00,
2013-04-14 15:59:00,76.8,37.3,29.75,NNW,341,7.0,14.0,24,0.00,,,0.00,WUHU216DAVISVP2,2013-04-14 22:59:00,
2013-04-14 16:04:00,77.1,37.5,29.75,NNW,333,9.0,14.0,24,0.00,,,0.00,WUHU216DAVISVP2,2013-04-14 23:04:00,
2013-04-14 16:09:00,77.0,40.4,29.75,NNW,347,5.0,14.0,27,0.00,,,0.00,WUHU216DAVISVP2,2013-04-14 23:09:00,
2013-04-14 16:14:00,76.8,38.3,29.75,NNW,347,3.0,10.0,25,0.00,,,0.00,WUHU216DAVISVP2,2013-04-14 23:14:00,
2013-04-14 16:19:00,77.0,37.4,29.75,NNW,334,12.0,12.0,24,0.00,,,0.00,WUHU216DAVISVP2,2013-04-14 23:19:00,
2013-04-14 16:24:00,76.8,38.2,29.75,NNW,333,8.0,12.0,25,0.00,,,0.00,WUHU216DAVISVP2,2013-04-14 23:24:00,
2013-04-14 16:29:00,76.8,38.2,29.75,NNW,338,7.0,14.0,25,0.00,,,0.00,WUHU216DAVISVP2,2013-04-14 23:29:00,
2013-04-14 16:34:00,76.3,37.8,29.75,North,351,2.0,14.0,25,0.00,,,0.00,WUHU216DAVISVP2,2013-04-14 23:34:00,
2013-04-14 16:39:00,76.5,35.9,29.75,NW,325,7.0,13.0,23,0.00,,,0.00,WUHU216DAVISVP2,2013-04-14 23:39:00,
2013-04-14 16:44:00,77.0,39.4,29.75,NW,325,8.0,13.0,26,0.00,,,0.00,WUHU216DAVISVP2,2013-04-14 23:44:00,
2013-04-14 16:49:00,76.8,37.2,29.75,NW,321,8.0,15.0,24,0.00,,,0.00,WUHU216DAVISVP2,2013-04-14 23:49:00,
2013-04-14 16:54:00,76.7,36.0,29.74,WNW,300,11.0,15.0,23,0.00,,,0.00,WUHU216DAVISVP2,2013-04-14 23:54:00,
2013-04-14 16:59:00,76.4,37.9,29.74,NNE,15,5.0,16.0,25,0.00,,,0.00,WUHU216DAVISVP2,2013-04-14 23:59:00,
2013-04-14 17:04:00,76.3,36.8,29.74,North,355,5.0,16.0,24,0.00,,,0.00,WUHU216DAVISVP2,2013-04-15 00:04:00,
2013-04-14 17:09:00,76.4,36.8,29.74,NNW,332,15.0,15.0,24,0.00,,,0.00,WUHU216DAVISVP2,2013-04-15 00:09:00,
2013-04-14 17:14:00,76.5,36.9,29.74,NNW,336,5.0,15.0,24,0.00,,,0.00,WUHU216DAVISVP2,2013-04-15 00:14:00,
2013-04-14 17:19:00,76.5,35.9,29.74,NW,322,4.0,14.0,23,0.00,,,0.00,WUHU216DAVISVP2,2013-04-15 00:19:00,
2013-04-14 17:24:00,76.3,37.8,29.74,NNW,335,4.0,16.0,25,0.00,,,0.00,WUHU216DAVISVP2,2013-04-15 00:24:00,
2013-04-14 17:29:00,76.4,35.8,29.74,NNW,346,3.0,16.0,23,0.00,,,0.00,WUHU216DAVISVP2,2013-04-15 00:29:00,
2013-04-14 17:34:00,75.9,37.4,29.74,NNW,333,4.0,15.0,25,0.00,,,0.00,WUHU216DAVISVP2,2013-04-15 00:34:00,
2013-04-14 17:39:00,75.5,39.0,29.74,North,355,2.0,15.0,27,0.00,,,0.00,WUHU216DAVISVP2,2013-04-15 00:39:00,
2013-04-14 17:44:00,75.6,39.1,29.74,NNW,334,5.0,15.0,27,0.00,,,0.00,WUHU216DAVISVP2,2013-04-15 00:44:00,
2013-04-14 17:49:00,75.6,39.1,29.75,NW,318,15.0,16.0,27,0.00,,,0.00,WUHU216DAVISVP2,2013-04-15 00:49:00,
2013-04-14 17:54:00,75.6,37.2,29.75,NW,317,6.0,16.0,25,0.00,,,0.00,WUHU216DAVISVP2,2013-04-15 00:54:00,
2013-04-14 17:59:00,75.5,38.1,29.75,NNW,341,4.0,18.0,26,0.00,,,0.00,WUHU216DAVISVP2,2013-04-15 00:59:00,
2013-04-14 18:04:00,75.3,39.0,29.75,North,355,6.0,18.0,27,0.00,,,0.00,WUHU216DAVISVP2,2013-04-15 01:04:00,
2013-04-14 18:09:00,75.1,38.7,29.75,NNW,336,8.0,15.0,27,0.00,,,0.00,WUHU216DAVISVP2,2013-04-15 01:09:00,
2013-04-14 18:14:00,74.9,39.6,29.75,NNW,339,2.0,15.0,28,0.00,,,0.00,WUHU216DAVISVP2,2013-04-15 01:14:00,
2013-04-14 18:19:00,74.6,38.4,29.75,NNW,331,8.0,13.0,27,0.00,,,0.00,WUHU216DAVISVP2,2013-04-15 01:19:00,
2013-04-14 18:24:00,74.4,38.1,29.75,NNW,328,6.0,12.0,27,0.00,,,0.00,WUHU216DAVISVP2,2013-04-15 01:24:00,
2013-04-14 18:29:00,74.4,38.1,29.74,NNE,25,9.0,12.0,27,0.00,,,0.00,WUHU216DAVISVP2,2013-04-15 01:29:00,
2013-04-14 18:34:00,74.2,38.1,29.74,NNW,330,11.0,14.0,27,0.00,,,0.00,WUHU216DAVISVP2,2013-04-15 01:34:00,
2013-04-14 18:39:00,73.9,38.6,29.74,NW,308,6.0,14.0,28,0.00,,,0.00,WUHU216DAVISVP2,2013-04-15 01:39:00,
2013-04-14 18:44:00,73.6,38.3,29.74,NNW,342,4.0,12.0,28,0.00,,,0.00,WUHU216DAVISVP2,2013-04-15 01:44:00,
2013-04-14 18:49:00,73.3,38.1,29.74,NW,322,8.0,12.0,28,0.00,,,0.00,WUHU216DAVISVP2,2013-04-15 01:49:00,
2013-04-14 18:54:00,73.1,38.8,29.74,NNW,332,8.0,12.0,29,0.00,,,0.00,WUHU216DAVISVP2,2013-04-15 01:54:00,
2013-04-14 18:59:00,72.7,38.6,29.74,NNW,334,5.0,11.0,29,0.00,,,0.00,WUHU216DAVISVP2,2013-04-15 01:59:00,
2013-04-14 19:04:00,72.2,39.0,29.74,NW,323,5.0,11.0,30,0.00,,,0.00,WUHU216DAVISVP2,2013-04-15 02:04:00,
2013-04-14 19:09:00,71.8,38.5,29.74,NNW,332,7.0,10.0,30,0.00,,,0.00,WUHU216DAVISVP2,2013-04-15 02:09:00,
2013-04-14 19:14:00,71.3,38.9,29.74,NW,311,3.0,10.0,31,0.00,,,0.00,WUHU216DAVISVP2,2013-04-15 02:14:00,
2013-04-14 19:19:00,70.8,39.3,29.74,NW,307,5.0,8.0,32,0.00,,,0.00,WUHU216DAVISVP2,2013-04-15 02:19:00,
2013-04-14 19:24:00,70.4,38.9,29.74,NW,307,3.0,6.0,32,0.00,,,0.00,WUHU216DAVISVP2,2013-04-15 02:24:00,
2013-04-14 19:29:00,70.1,39.5,29.74,WNW,302,4.0,5.0,33,0.00,,,0.00,WUHU216DAVISVP2,2013-04-15 02:29:00,
2013-04-14 19:34:00,69.9,39.3,29.74,NW,311,4.0,7.0,33,0.00,,,0.00,WUHU216DAVISVP2,2013-04-15 02:34:00,
2013-04-14 19:39:00,69.6,39.8,29.75,NW,311,1.0,7.0,34,0.00,,,0.00,WUHU216DAVISVP2,2013-04-15 02:39:00,
2013-04-14 19:44:00,69.3,39.5,29.74,NW,316,5.0,8.0,34,0.00,,,0.00,WUHU216DAVISVP2,2013-04-15 02:44:00,
2013-04-14 19:49:00,69.0,39.3,29.74,NW,323,4.0,8.0,34,0.00,,,0.00,WUHU216DAVISVP2,2013-04-15 02:49:00,
2013-04-14 19:54:00,68.8,40.0,29.74,NW,325,3.0,8.0,35,0.00,,,0.00,WUHU216DAVISVP2,2013-04-15 02:54:00,
2013-04-14 19:59:00,68.4,40.4,29.74,NNW,328,1.0,8.0,36,0.00,,,0.00,WUHU216DAVISVP2,2013-04-15 02:59:00,
2013-04-14 20:04:00,67.8,40.6,29.75,NNW,327,4.0,6.0,37,0.00,,,0.00,WUHU216DAVISVP2,2013-04-15 03:04:00,
2013-04-14 20:09:00,67.7,39.8,29.75,NW,309,2.0,6.0,36,0.00,,,0.00,WUHU216DAVISVP2,2013-04-15 03:09:00,
2013-04-14 20:14:00,67.6,39.7,29.75,West,275,3.0,6.0,36,0.00,,,0.00,WUHU216DAVISVP2,2013-04-15 03:14:00,
2013-04-14 20:19:00,67.2,40.0,29.75,WNW,300,0.0,4.0,37,0.00,,,0.00,WUHU216DAVISVP2,2013-04-15 03:19:00,
2013-04-14 20:24:00,66.8,39.7,29.75,WNW,302,2.0,5.0,37,0.00,,,0.00,WUHU216DAVISVP2,2013-04-15 03:24:00,
2013-04-14 20:29:00,66.6,40.2,29.76,NW,324,5.0,5.0,38,0.00,,,0.00,WUHU216DAVISVP2,2013-04-15 03:29:00,
2013-04-14 20:34:00,66.8,39.7,29.76,NW,320,1.0,9.0,37,0.00,,,0.00,WUHU216DAVISVP2,2013-04-15 03:34:00,
2013-04-14 20:39:00,66.6,39.3,29.76,NNW,327,1.0,9.0,37,0.00,,,0.00,WUHU216DAVISVP2,2013-04-15 03:39:00,
2013-04-14 20:44:00,66.3,39.8,29.76,NNW,343,2.0,7.0,38,0.00,,,0.00,WUHU216DAVISVP2,2013-04-15 03:44:00,
2013-04-14 20:49:00,65.9,40.1,29.76,NNW,339,0.0,7.0,39,0.00,,,0.00,WUHU216DAVISVP2,2013-04-15 03:49:00,
2013-04-14 20:54:00,65.4,41.1,29.76,NNW,340,1.0,6.0,41,0.00,,,0.00,WUHU216DAVISVP2,2013-04-15 03:54:00,
2013-04-14 20:59:00,65.1,40.2,29.77,NNW,333,2.0,6.0,40,0.00,,,0.00,WUHU216DAVISVP2,2013-04-15 03:59:00,
2013-04-14 21:00:00,65.1,40.2,29.77,NNW,333,2.0,6.0,40,0.00,,,0.00,WUHU216DAVISVP2,2013-04-15 04:00:00,
2013-04-14 21:05:00,64.9,39.9,29.77,NNW,333,1.0,6.0,40,0.00,,,0.00,WUHU216DAVISVP2,2013-04-15 04:05:00,
2013-04-14 21:10:00,64.7,40.3,29.77,NNW,333,0.0,4.0,41,0.00,,,0.00,WUHU216DAVISVP2,2013-04-15 04:10:00,
2013-04-14 21:15:00,64.5,40.1,29.78,NNW,333,0.0,1.0,41,0.00,,,0.00,WUHU216DAVISVP2,2013-04-15 04:15:00,
2013-04-14 21:20:00,64.2,40.5,29.78,NNW,333,1.0,3.0,42,0.00,,,0.00,WUHU216DAVISVP2,2013-04-15 04:20:00,
2013-04-14 21:25:00,64.1,40.4,29.79,WNW,287,0.0,7.0,42,0.00,,,0.00,WUHU216DAVISVP2,2013-04-15 04:25:00,
2013-04-14 21:30:00,63.9,40.9,29.79,WNW,300,4.0,7.0,43,0.00,,,0.00,WUHU216DAVISVP2,2013-04-15 04:30:00,
2013-04-14 21:35:00,63.6,41.2,29.79,NNW,331,5.0,10.0,44,0.00,,,0.00,WUHU216DAVISVP2,2013-04-15 04:35:00,
2013-04-14 21:40:00,63.6,41.2,29.79,NW,326,5.0,10.0,44,0.00,,,0.00,WUHU216DAVISVP2,2013-04-15 04:40:00,
2013-04-14 21:45:00,63.4,41.6,29.79,NNW,331,4.0,11.0,45,0.00,,,0.00,WUHU216DAVISVP2,2013-04-15 04:45:00,
2013-04-14 21:50:00,63.1,41.9,29.79,NW,326,8.0,11.0,46,0.00,,,0.00,WUHU216DAVISVP2,2013-04-15 04:50:00,
2013-04-14 21:55:00,63.0,41.8,29.79,NW,310,9.0,10.0,46,0.00,,,0.00,WUHU216DAVISVP2,2013-04-15 04:55:00,
2013-04-14 22:00:00,62.9,42.3,29.79,North,355,5.0,9.0,47,0.00,,,0.00,WUHU216DAVISVP2,2013-04-15 05:00:00,
2013-04-14 22:05:00,63.0,41.8,29.79,NW,323,8.0,11.0,46,0.00,,,0.00,WUHU216DAVISVP2,2013-04-15 05:05:00,
2013-04-14 22:10:00,63.1,41.9,29.79,NW,319,4.0,11.0,46,0.00,,,0.00,WUHU216DAVISVP2,2013-04-15 05:10:00,
2013-04-14 22:15:00,63.0,42.4,29.79,NW,304,6.0,10.0,47,0.00,,,0.00,WUHU216DAVISVP2,2013-04-15 05:15:00,
2013-04-14 22:20:00,62.9,42.3,29.80,NNW,344,2.0,10.0,47,0.00,,,0.00,WUHU216DAVISVP2,2013-04-15 05:20:00,
2013-04-14 22:25:00,62.5,42.5,29.80,NNW,331,7.0,10.0,48,0.00,,,0.00,WUHU216DAVISVP2,2013-04-15 05:25:00,
2013-04-14 22:30:00,62.2,42.2,29.80,NW,308,2.0,9.0,48,0.00,,,0.00,WUHU216DAVISVP2,2013-04-15 05:30:00,
2013-04-14 22:35:00,62.0,42.6,29.80,NW,321,7.0,12.0,49,0.00,,,0.00,WUHU216DAVISVP2,2013-04-15 05:35:00,
2013-04-14 22:40:00,61.9,42.5,29.79,NNW,329,11.0,12.0,49,0.00,,,0.00,WUHU216DAVISVP2,2013-04-15 05:40:00,
2013-04-14 22:45:00,61.8,42.4,29.79,NW,314,10.0,13.0,49,0.00,,,0.00,WUHU216DAVISVP2,2013-04-15 05:45:00,
2013-04-14 22:50:00,61.8,43.0,29.79,WNW,294,8.0,15.0,50,0.00,,,0.00,WUHU216DAVISVP2,2013-04-15 05:50:00,
2013-04-14 22:55:00,61.7,42.9,29.80,NW,323,11.0,15.0,50,0.00,,,0.00,WUHU216DAVISVP2,2013-04-15 05:55:00,
2013-04-14 23:00:00,61.6,42.8,29.79,NW,316,8.0,14.0,50,0.00,,,0.00,WUHU216DAVISVP2,2013-04-15 06:00:00,
2013-04-14 23:05:00,61.4,43.1,29.80,NW,323,8.0,14.0,51,0.00,,,0.00,WUHU216DAVISVP2,2013-04-15 06:05:00,
2013-04-14 23:10:00,61.2,43.0,29.79,NW,308,10.0,14.0,51,0.00,,,0.00,WUHU216DAVISVP2,2013-04-15 06:10:00,
2013-04-14 23:15:00,61.0,43.2,29.79,North,349,14.0,16.0,52,0.00,,,0.00,WUHU216DAVISVP2,2013-04-15 06:15:00,
2013-04-14 23:20:00,60.8,43.1,29.79,NNW,327,8.0,16.0,52,0.00,,,0.00,WUHU216DAVISVP2,2013-04-15 06:20:00,
2013-04-14 23:25:00,60.7,43.5,29.80,NW,321,5.0,16.0,53,0.00,,,0.00,WUHU216DAVISVP2,2013-04-15 06:25:00,
2013-04-14 23:30:00,60.6,43.4,29.80,NW,325,11.0,16.0,53,0.00,,,0.00,WUHU216DAVISVP2,2013-04-15 06:30:00,
2013-04-14 23:35:00,60.6,43.4,29.79,NW,315,6.0,15.0,53,0.00,,,0.00,WUHU216DAVISVP2,2013-04-15 06:35:00,
2013-04-14 23:40:00,60.5,43.3,29.79,NNW,334,11.0,16.0,53,0.00,,,0.00,WUHU216DAVISVP2,2013-04-15 06:40:00,
2013-04-14 23:45:00,60.4,43.7,29.80,NW,311,3.0,16.0,54,0.00,,,0.00,WUHU216DAVISVP2,2013-04-15 06:45:00,
2013-04-14 23:50:00,60.3,43.7,29.80,NW,313,10.0,14.0,54,0.00,,,0.00,WUHU216DAVISVP2,2013-04-15 06:50:00,
2013-04-14 23:55:00,60.2,43.6,29.80,NW,314,6.0,15.0,54,0.00,,,0.00,WUHU216DAVISVP2,2013-04-15 06:55:00,